Simultaneous Nadir Overpasses (SNOs) Predictions

Prediction of SNOs between AQUA and METOP-B Satellite Orbit:

Table of predicted SNOs for the next 14.0 days since TLE Epoch: 11/10/2018
Index Date (AQUA) Time (AQUA) Lat,Lon (AQUA) SZA (AQUA ) Date (METOP-B) Time (METOP-B) Lat,Lon (METOP-B) SZA (METOP-B ) Distance(km) Time Diff (sec)
1 11/12/2018 17:09:40 -73.88, 96.70 88.40 11/12/2018 17:08:49 -73.90, 96.72 88.37 2.72 51
2 11/12/2018 17:59:08 73.94, -95.81 91.68 11/12/2018 17:59:28 73.96, -95.81 91.70 1.74 20
3 11/15/2018 12:43:54 -73.89, 163.10 87.64 11/15/2018 12:43:15 -73.88, 163.06 87.66 2.42 39
4 11/15/2018 13:33:22 73.96, -29.41 92.44 11/15/2018 13:33:53 73.98, -29.35 92.46 2.63 31
5 11/18/2018 08:18:08 -73.92,-130.51 86.93 11/18/2018 08:17:40 -73.90,-130.48 86.95 2.58 28
6 11/18/2018 09:07:35 73.94, 37.09 93.11 11/18/2018 09:08:19 73.95, 36.98 93.12 3.66 44
7 11/21/2018 03:02:42 73.29, 129.64 93.08 11/21/2018 03:01:36 73.24, 127.07 93.06 82.60 66
8 11/21/2018 03:52:20 -73.90, -64.01 86.30 11/21/2018 03:52:04 -73.92, -64.02 86.28 2.22 16
9 11/21/2018 04:41:48 73.97, 103.47 93.79 11/21/2018 04:42:43 73.97, 103.43 93.78 1.00 55
10 11/23/2018 22:37:04 73.75,-164.88 94.14 11/23/2018 22:35:52 73.70,-165.46 94.11 18.77 72
11 11/23/2018 23:26:34 -73.93, 2.35 85.66 11/23/2018 23:26:29 -73.93, 2.43 85.66 2.32 5




NCC Satellite Simultaneous Nadir Overpasses (SNOs) Prediction Service
